EW0072 Weather Reports


time (UTC)temp
C
wind
direction
speed
KPH
gust
KPH
rain 1hr
cm
rain 24hr
cm
rain mn
cm
humidity
%
barometer
mb
20240222114558 1 360 0.0 0.0 0.00 0.00 0.00 80 1006.7
20240222113037 1 360 0.0 0.0 0.00 0.00 0.00 80 1006.6
20240222111553 1 360 0.0 0.0 0.00 0.00 0.00 80 1006.6
20240222110018 1 360 0.0 0.0 0.00 0.00 0.00 80 1006.3
20240222104520 1 360 0.0 0.0 0.00 0.00 0.00 78 1006.3
20240222103014 2 360 0.0 0.0 0.00 0.00 0.00 78 1006.1
20240222101526 2 360 0.0 0.0 0.00 0.00 0.00 78 1005.9
20240222100011 2 360 0.0 0.0 0.00 0.00 0.00 77 1005.9
20240222094509 2 360 0.0 0.0 0.00 0.00 0.00 77 1005.5
20240222093006 2 360 0.0 0.0 0.00 0.00 0.00 77 1005.1
20240222091505 2 360 0.0 0.0 0.00 0.00 0.00 76 1005.2
20240222090057 3 360 1.6 4.8 0.00 0.00 0.00 74 1005.1
20240222084551 3 193 0.0 0.0 0.00 0.00 0.00 75 1005.0
20240222083050 3 193 0.0 0.0 0.00 0.00 0.00 76 1005.0
20240222081550 3 194 0.0 0.0 0.00 0.00 0.00 76 1004.7
20240222080052 2 194 0.0 0.0 0.00 0.00 0.00 77 1004.8
20240222074548 2 194 0.0 0.0 0.00 0.00 0.00 78 1004.9
20240222073050 2 194 0.0 0.0 0.00 0.00 0.00 77 1004.9
20240222071556 2 194 0.0 4.8 0.00 0.00 0.00 77 1004.9
20240222070033 3 194 0.0 0.0 0.00 0.00 0.00 76 1004.4
20240222064531 3 194 0.0 6.4 0.00 0.00 0.00 75 1004.2
20240222063034 3 173 3.2 9.7 0.00 0.00 0.00 74 1003.9
20240222061523 3 360 6.4 9.7 0.00 0.00 0.00 75 1003.7
20240222060022 3 360 8.0 16.1 0.00 0.00 0.00 74 1003.8
20240222054530 4 360 8.0 14.5 0.00 0.00 0.00 73 1003.7
20240222053022 3 360 6.4 11.3 0.00 0.00 0.00 72 1003.6
20240222051519 4 360 9.7 17.7 0.00 0.00 0.00 70 1003.3
20240222050005 5 360 8.0 12.9 0.00 0.00 0.00 66 1003.4
20240222044504 5 360 8.0 14.5 0.00 0.00 0.00 64 1003.0
20240222043003 5 360 11.3 20.9 0.00 0.00 0.00 62 1003.0
20240222041502 5 360 6.4 11.3 0.00 0.00 0.00 59 1002.6
20240222040001 6 360 0.0 6.4 0.00 0.00 0.00 56 1002.5
20240222034501 6 101 4.8 11.3 0.00 0.00 0.00 56 1002.0
20240222033000 6 98 0.0 3.2 0.00 0.00 0.00 52 1001.6
20240222031600 7 97 1.6 6.4 0.00 0.00 0.00 53 1001.3
20240222030049 7 360 0.0 8.0 0.00 0.00 0.00 52 1000.8
20240222024549 7 360 3.2 6.4 0.00 0.00 0.00 52 1000.5
20240222023053 7 360 3.2 9.7 0.00 0.00 0.00 54 1000.3
20240222021556 7 360 0.0 4.8 0.00 0.00 0.00 55 1000.2
20240222020058 7 360 0.0 8.0 0.00 0.00 0.00 55 999.9
20240222014547 8 360 4.8 11.3 0.00 0.00 0.00 54 999.7
20240222013047 8 360 3.2 11.3 0.00 0.00 0.00 53 999.6
20240222011552 8 360 11.3 17.7 0.00 0.00 0.00 52 999.3
20240222010051 9 360 8.0 20.9 0.00 0.00 0.00 51 998.8
20240222004534 11 360 16.1 29.0 0.00 0.00 0.00 43 998.4
20240222003042 12 360 6.4 16.1 0.00 0.00 0.00 27 997.9
20240222001531 13 360 4.8 12.9 0.00 0.00 0.00 27 997.7
20240222000036 14 60 3.2 11.3 0.00 0.00 0.00 24 997.3
20240221234534 15 42 1.6 19.3 0.00 0.00 0.00 22 997.2
20240221233031 16 360 3.2 14.5 0.00 0.00 0.00 12 997.2
20240221231530 15 360 12.9 22.5 0.00 0.00 0.00 12 996.5
20240221230029 15 360 11.3 25.7 0.00 0.00 0.00 12 996.2
20240221224514 15 274 9.7 33.8 0.00 0.00 0.00 12 996.2
20240221223009 16 360 20.9 40.2 0.00 0.00 0.00 12 996.1
20240221221558 15 360 1.6 12.9 0.00 0.00 0.00 28 996.0
20240221220112 15 55 4.8 12.9 0.00 0.00 0.00 28 995.7
20240221214556 15 360 9.7 20.9 0.00 0.00 0.00 27 995.5
20240221213057 16 360 8.0 14.5 0.00 0.00 0.00 25 995.3
20240221211603 16 22 6.4 17.7 0.00 0.00 0.00 24 995.4
20240221210055 16 360 3.2 27.4 0.00 0.00 0.00 24 995.4
20240221204623 17 360 9.7 20.9 0.00 0.00 0.00 22 995.2
20240221203053 17 360 9.7 19.3 0.00 0.00 0.00 19 995.2
20240221201539 17 360 3.2 20.9 0.00 0.00 0.00 20 995.4
20240221200051 17 360 6.4 19.3 0.00 0.00 0.00 18 995.7
20240221194542 17 360 8.0 29.0 0.00 0.00 0.00 12 996.2
20240221193034 17 360 8.0 22.5 0.00 0.00 0.00 12 996.3
20240221191529 17 360 4.8 20.9 0.00 0.00 0.00 12 996.8
20240221190032 17 360 11.3 24.1 0.00 0.00 0.00 12 997.2
20240221184536 17 275 6.4 25.7 0.00 0.00 0.00 12 997.6
20240221183018 17 360 6.4 16.1 0.00 0.00 0.00 12 998.1
20240221181502 16 360 12.9 27.4 0.00 0.00 0.00 12 998.6
20240221180109 16 263 9.7 19.3 0.00 0.00 0.00 13 998.8
20240221174554 15 360 1.6 8.0 0.00 0.00 0.00 16 999.3
20240221173051 15 209 6.4 9.7 0.00 0.00 0.00 17 999.4
20240221171557 15 221 9.7 17.7 0.00 0.00 0.00 17 999.9
20240221170042 15 360 3.2 12.9 0.00 0.00 0.00 20 1000.2
20240221164538 14 360 4.8 14.5 0.00 0.00 0.00 20 1000.4
20240221163034 13 360 0.0 6.4 0.00 0.00 0.00 30 1000.5
20240221161517 11 360 0.0 8.0 0.00 0.00 0.00 32 1000.8
20240221160014 10 205 0.0 6.4 0.00 0.00 0.00 38 1000.9
20240221154510 8 206 1.6 9.7 0.00 0.00 0.00 40 1001.2
20240221153006 7 360 1.6 4.8 0.00 0.00 0.00 46 1001.6
20240221151603 5 205 0.0 3.2 0.00 0.00 0.00 50 1001.5
20240221150055 4 360 0.0 0.0 0.00 0.00 0.00 53 1001.7
20240221144551 3 360 0.0 0.0 0.00 0.00 0.00 57 1001.5
20240221143048 2 360 0.0 0.0 0.00 0.00 0.00 59 1001.4
20240221141539 2 360 0.0 0.0 0.00 0.00 0.00 58 1001.4
20240221140033 3 360 0.0 0.0 0.00 0.00 0.00 56 1001.5
20240221134533 3 360 0.0 0.0 0.00 0.00 0.00 54 1001.6
20240221133033 4 360 0.0 0.0 0.00 0.00 0.00 50 1001.6
20240221131532 3 360 0.0 6.4 0.00 0.00 0.00 52 1001.9
20240221130038 5 360 0.0 4.8 0.00 0.00 0.00 50 1002.0
20240221124536 3 198 0.0 4.8 0.00 0.00 0.00 54 1002.1
20240221123025 2 198 0.0 0.0 0.00 0.00 0.00 60 1002.3
20240221121507 2 198 0.0 0.0 0.00 0.00 0.00 63 1002.6
20240221120004 2 198 0.0 0.0 0.00 0.00 0.00 64 1002.6